Time,TemperatureF,DewpointF,PressureIn,WindDirection,WindDirectionDegrees,WindSpeedMPH,WindSpeedGustMPH,Humidity,HourlyPrecipIn,Conditions,Clouds,dailyrainin,SolarRadiationWatts/m^2,SoftwareType,DateUTC
2013-07-15 00:00:00,75.3,61.0,30.05,WNW,286,0.0,-999.0,61,-99.99,,,0.00,0,weatherlink.com 1.10,2013-07-14 22:00:00,
2013-07-15 00:15:00,75.2,60.0,30.06,WNW,286,0.0,-999.0,60,-99.99,,,0.00,0,weatherlink.com 1.10,2013-07-14 22:15:00,
2013-07-15 00:31:00,75.2,60.0,30.05,WNW,286,0.0,-999.0,59,-99.99,,,0.00,0,weatherlink.com 1.10,2013-07-14 22:31:00,
2013-07-15 00:46:00,75.1,60.0,30.05,WNW,286,0.0,-999.0,59,-99.99,,,0.00,0,weatherlink.com 1.10,2013-07-14 22:46:00,
2013-07-15 01:02:00,75.1,59.0,30.05,WNW,286,0.0,-999.0,58,-99.99,,,0.00,0,weatherlink.com 1.10,2013-07-14 23:02:00,
2013-07-15 01:17:00,75.1,59.0,30.05,WNW,286,0.0,-999.0,58,-99.99,,,0.00,0,weatherlink.com 1.10,2013-07-14 23:17:00,
2013-07-15 01:32:00,75.1,59.0,30.05,WNW,286,0.0,-999.0,57,-99.99,,,0.00,0,weatherlink.com 1.10,2013-07-14 23:32:00,
2013-07-15 01:47:00,75.1,59.0,30.04,WNW,286,0.0,-999.0,58,-99.99,,,0.00,0,weatherlink.com 1.10,2013-07-14 23:47:00,
2013-07-15 02:02:00,75.2,59.0,30.04,WNW,286,0.0,-999.0,58,-99.99,,,0.00,0,weatherlink.com 1.10,2013-07-15 00:02:00,
2013-07-15 02:17:00,75.1,59.0,30.04,WNW,286,0.0,-999.0,58,-99.99,,,0.00,0,weatherlink.com 1.10,2013-07-15 00:17:00,
2013-07-15 02:33:00,75.0,59.0,30.04,WNW,286,0.0,-999.0,57,-99.99,,,0.00,0,weatherlink.com 1.10,2013-07-15 00:33:00,
2013-07-15 02:48:00,74.7,59.0,30.04,WNW,286,0.0,-999.0,58,-99.99,,,0.00,0,weatherlink.com 1.10,2013-07-15 00:48:00,
2013-07-15 03:03:00,74.4,59.0,30.04,WNW,286,0.0,-999.0,58,-99.99,,,0.00,0,weatherlink.com 1.10,2013-07-15 01:03:00,
2013-07-15 03:18:00,74.1,59.0,30.04,WNW,286,0.0,-999.0,59,-99.99,,,0.00,0,weatherlink.com 1.10,2013-07-15 01:18:00,
2013-07-15 03:33:00,74.0,59.0,30.04,WNW,286,0.0,-999.0,59,-99.99,,,0.00,0,weatherlink.com 1.10,2013-07-15 01:33:00,
2013-07-15 03:48:00,73.8,58.0,30.04,WNW,286,0.0,-999.0,59,-99.99,,,0.00,0,weatherlink.com 1.10,2013-07-15 01:48:00,
2013-07-15 04:04:00,73.7,59.0,30.04,WNW,286,0.0,-999.0,60,-99.99,,,0.00,0,weatherlink.com 1.10,2013-07-15 02:04:00,
2013-07-15 04:19:00,73.6,60.0,30.04,WNW,286,0.0,-999.0,62,-99.99,,,0.00,0,weatherlink.com 1.10,2013-07-15 02:19:00,
2013-07-15 04:34:00,73.5,60.0,30.04,WNW,286,0.0,-999.0,63,-99.99,,,0.00,0,weatherlink.com 1.10,2013-07-15 02:34:00,
2013-07-15 05:04:00,73.2,60.0,30.03,WNW,286,0.0,-999.0,64,-99.99,,,0.00,0,weatherlink.com 1.10,2013-07-15 03:04:00,
2013-07-15 05:19:00,73.0,60.0,30.03,WNW,286,0.0,-999.0,65,-99.99,,,0.00,0,weatherlink.com 1.10,2013-07-15 03:19:00,
2013-07-15 05:35:00,72.9,60.0,30.03,WNW,286,0.0,-999.0,65,-99.99,,,0.00,0,weatherlink.com 1.10,2013-07-15 03:35:00,
2013-07-15 05:50:00,72.8,61.0,30.04,WNW,286,0.0,-999.0,67,-99.99,,,0.00,0,weatherlink.com 1.10,2013-07-15 03:50:00,
2013-07-15 06:05:00,73.0,62.0,30.03,WNW,286,0.0,-999.0,69,-99.99,,,0.00,0,weatherlink.com 1.10,2013-07-15 04:05:00,
2013-07-15 06:20:00,73.0,63.0,30.03,WNW,286,0.0,-999.0,70,-99.99,,,0.00,0,weatherlink.com 1.10,2013-07-15 04:20:00,
2013-07-15 06:36:00,73.3,64.0,30.03,WNW,286,0.0,-999.0,72,-99.99,,,0.00,0,weatherlink.com 1.10,2013-07-15 04:36:00,
2013-07-15 06:51:00,73.4,64.0,30.04,WNW,286,0.0,-999.0,73,-99.99,,,0.00,9,weatherlink.com 1.10,2013-07-15 04:51:00,
2013-07-15 07:07:00,73.4,65.0,30.04,WNW,286,0.0,-999.0,74,-99.99,,,0.00,19,weatherlink.com 1.10,2013-07-15 05:07:00,
2013-07-15 07:21:00,73.5,66.0,30.04,WNW,286,2.0,-999.0,76,-99.99,,,0.00,26,weatherlink.com 1.10,2013-07-15 05:21:00,
2013-07-15 07:37:00,73.8,66.0,30.05,WNW,286,1.0,-999.0,77,-99.99,,,0.00,33,weatherlink.com 1.10,2013-07-15 05:37:00,
2013-07-15 07:52:00,74.1,67.0,30.05,WNW,286,2.0,-999.0,79,-99.99,,,0.00,44,weatherlink.com 1.10,2013-07-15 05:52:00,
2013-07-15 08:08:00,74.5,68.0,30.05,WNW,286,2.0,-999.0,81,-99.99,,,0.00,46,weatherlink.com 1.10,2013-07-15 06:08:00,
2013-07-15 08:22:00,74.9,69.0,30.05,WNW,286,1.0,-999.0,82,-99.99,,,0.00,49,weatherlink.com 1.10,2013-07-15 06:22:00,
2013-07-15 08:37:00,75.2,69.0,30.06,WNW,286,1.0,-999.0,82,-99.99,,,0.00,54,weatherlink.com 1.10,2013-07-15 06:37:00,
2013-07-15 08:53:00,75.0,69.0,30.06,WNW,286,4.0,-999.0,82,-99.99,,,0.00,58,weatherlink.com 1.10,2013-07-15 06:53:00,
2013-07-15 09:07:00,74.8,69.0,30.06,WNW,286,3.0,-999.0,81,-99.99,,,0.00,62,weatherlink.com 1.10,2013-07-15 07:07:00,
2013-07-15 09:23:00,74.6,67.0,30.07,WNW,286,2.0,-999.0,78,-99.99,,,0.00,67,weatherlink.com 1.10,2013-07-15 07:23:00,
2013-07-15 09:38:00,74.9,67.0,30.07,WNW,286,0.0,-999.0,75,-99.99,,,0.00,72,weatherlink.com 1.10,2013-07-15 07:38:00,
2013-07-15 09:53:00,75.7,66.0,30.07,WNW,286,1.0,-999.0,72,-99.99,,,0.00,79,weatherlink.com 1.10,2013-07-15 07:53:00,
2013-07-15 10:09:00,77.9,67.0,30.07,WNW,286,2.0,-999.0,69,-99.99,,,0.00,522,weatherlink.com 1.10,2013-07-15 08:09:00,
2013-07-15 10:24:00,80.2,67.0,30.07,WNW,286,2.0,-999.0,65,-99.99,,,0.00,573,weatherlink.com 1.10,2013-07-15 08:24:00,
2013-07-15 10:39:00,82.7,67.0,30.07,WNW,286,0.0,-999.0,59,-99.99,,,0.00,613,weatherlink.com 1.10,2013-07-15 08:39:00,
2013-07-15 10:54:00,84.3,67.0,30.07,WNW,286,1.0,-999.0,56,-99.99,,,0.00,656,weatherlink.com 1.10,2013-07-15 08:54:00,
2013-07-15 11:10:00,85.5,66.0,30.08,WNW,286,4.0,-999.0,52,-99.99,,,0.00,696,weatherlink.com 1.10,2013-07-15 09:10:00,
2013-07-15 11:25:00,84.9,65.0,30.08,WNW,286,4.0,-999.0,52,-99.99,,,0.00,729,weatherlink.com 1.10,2013-07-15 09:25:00,
2013-07-15 11:40:00,86.2,65.0,30.08,WNW,288,5.0,-999.0,50,-99.99,,,0.00,759,weatherlink.com 1.10,2013-07-15 09:40:00,
2013-07-15 11:55:00,84.3,68.0,30.08,West,281,5.0,-999.0,58,-99.99,,,0.00,784,weatherlink.com 1.10,2013-07-15 09:55:00,
2013-07-15 12:11:00,84.9,66.0,30.08,West,267,3.0,-999.0,53,-99.99,,,0.00,807,weatherlink.com 1.10,2013-07-15 10:11:00,
2013-07-15 12:26:00,85.0,66.0,30.08,West,275,3.0,-999.0,54,-99.99,,,0.00,830,weatherlink.com 1.10,2013-07-15 10:26:00,
2013-07-15 12:41:00,86.4,65.0,30.08,WSW,244,6.0,-999.0,49,-99.99,,,0.00,849,weatherlink.com 1.10,2013-07-15 10:41:00,
2013-07-15 12:56:00,86.4,66.0,30.08,SSW,210,6.0,-999.0,50,-99.99,,,0.00,867,weatherlink.com 1.10,2013-07-15 10:56:00,
2013-07-15 13:11:00,87.3,63.0,30.08,WSW,238,7.0,-999.0,45,-99.99,,,0.00,877,weatherlink.com 1.10,2013-07-15 11:11:00,
2013-07-15 13:27:00,87.5,64.0,30.08,WSW,250,5.0,-999.0,45,-99.99,,,0.00,889,weatherlink.com 1.10,2013-07-15 11:27:00,
2013-07-15 13:42:00,87.2,63.0,30.08,SSW,208,3.0,-999.0,44,-99.99,,,0.00,889,weatherlink.com 1.10,2013-07-15 11:42:00,
2013-07-15 13:57:00,87.0,62.0,30.07,SSW,213,5.0,-999.0,43,-99.99,,,0.00,891,weatherlink.com 1.10,2013-07-15 11:57:00,
2013-07-15 14:13:00,86.7,62.0,30.07,SW,223,7.0,-999.0,44,-99.99,,,0.00,888,weatherlink.com 1.10,2013-07-15 12:13:00,
2013-07-15 14:27:00,86.6,63.0,30.07,SSW,211,1.0,-999.0,45,-99.99,,,0.00,886,weatherlink.com 1.10,2013-07-15 12:27:00,
2013-07-15 14:42:00,87.3,64.0,30.07,WSW,241,9.0,-999.0,46,-99.99,,,0.00,879,weatherlink.com 1.10,2013-07-15 12:42:00,
2013-07-15 14:58:00,85.9,66.0,30.07,WSW,245,5.0,-999.0,52,-99.99,,,0.00,863,weatherlink.com 1.10,2013-07-15 12:58:00,
2013-07-15 15:13:00,86.7,67.0,30.06,SW,221,8.0,-999.0,52,-99.99,,,0.00,849,weatherlink.com 1.10,2013-07-15 13:13:00,
2013-07-15 15:29:00,86.0,66.0,30.06,South,186,8.0,-999.0,52,-99.99,,,0.00,830,weatherlink.com 1.10,2013-07-15 13:29:00,
2013-07-15 15:43:00,87.2,61.0,30.05,WSW,254,7.0,-999.0,42,-99.99,,,0.00,814,weatherlink.com 1.10,2013-07-15 13:43:00,
2013-07-15 15:58:00,88.5,61.0,30.05,West,275,9.0,-999.0,40,-99.99,,,0.00,784,weatherlink.com 1.10,2013-07-15 13:58:00,
2013-07-15 16:14:00,88.5,60.0,30.05,WSW,250,7.0,-999.0,38,-99.99,,,0.00,752,weatherlink.com 1.10,2013-07-15 14:14:00,
2013-07-15 16:28:00,88.6,61.0,30.05,WSW,256,7.0,-999.0,39,-99.99,,,0.00,728,weatherlink.com 1.10,2013-07-15 14:28:00,
2013-07-15 16:44:00,87.4,63.0,30.05,WSW,240,4.0,-999.0,44,-99.99,,,0.00,694,weatherlink.com 1.10,2013-07-15 14:44:00,
2013-07-15 16:59:00,89.0,59.0,30.05,SW,216,7.0,-999.0,37,-99.99,,,0.00,664,weatherlink.com 1.10,2013-07-15 14:59:00,
2013-07-15 17:30:00,86.0,64.0,30.05,SSW,192,4.0,-999.0,48,-99.99,,,0.00,580,weatherlink.com 1.10,2013-07-15 15:30:00,
2013-07-15 17:45:00,84.9,65.0,30.05,South,177,5.0,-999.0,52,-99.99,,,0.00,534,weatherlink.com 1.10,2013-07-15 15:45:00,
2013-07-15 18:00:00,84.2,66.0,30.05,South,185,6.0,-999.0,55,-99.99,,,0.00,494,weatherlink.com 1.10,2013-07-15 16:00:00,
2013-07-15 18:15:00,83.3,67.0,30.05,South,169,9.0,-999.0,59,-99.99,,,0.00,454,weatherlink.com 1.10,2013-07-15 16:15:00,
2013-07-15 18:30:00,82.8,68.0,30.04,South,172,7.0,-999.0,61,-99.99,,,0.00,411,weatherlink.com 1.10,2013-07-15 16:30:00,
2013-07-15 19:00:00,82.7,67.0,30.04,South,176,12.0,-999.0,59,-99.99,,,0.00,320,weatherlink.com 1.10,2013-07-15 17:00:00,
2013-07-15 19:16:00,81.7,67.0,30.04,SE,129,5.0,-999.0,61,-99.99,,,0.00,274,weatherlink.com 1.10,2013-07-15 17:16:00,
2013-07-15 19:31:00,81.9,68.0,30.05,SSE,153,9.0,-999.0,62,-99.99,,,0.00,230,weatherlink.com 1.10,2013-07-15 17:31:00,
2013-07-15 19:47:00,81.2,67.0,30.05,South,182,10.0,-999.0,63,-99.99,,,0.00,183,weatherlink.com 1.10,2013-07-15 17:47:00,
2013-07-15 20:01:00,80.9,68.0,30.05,South,177,3.0,-999.0,64,-99.99,,,0.00,142,weatherlink.com 1.10,2013-07-15 18:01:00,
2013-07-15 20:17:00,80.5,67.0,30.05,SSE,165,10.0,-999.0,63,-99.99,,,0.00,95,weatherlink.com 1.10,2013-07-15 18:17:00,
2013-07-15 20:32:00,79.8,67.0,30.05,SSE,164,3.0,-999.0,66,-99.99,,,0.00,56,weatherlink.com 1.10,2013-07-15 18:32:00,
2013-07-15 20:47:00,79.6,68.0,30.05,South,173,5.0,-999.0,67,-99.99,,,0.00,28,weatherlink.com 1.10,2013-07-15 18:47:00,
2013-07-15 21:03:00,79.1,68.0,30.05,SSE,167,6.0,-999.0,68,-99.99,,,0.00,11,weatherlink.com 1.10,2013-07-15 19:03:00,
2013-07-15 21:32:00,78.3,68.0,30.06,SSE,163,6.0,-999.0,71,-99.99,,,0.00,0,weatherlink.com 1.10,2013-07-15 19:32:00,
2013-07-15 21:48:00,78.0,68.0,30.06,SSE,163,4.0,-999.0,72,-99.99,,,0.00,0,weatherlink.com 1.10,2013-07-15 19:48:00,
2013-07-15 22:03:00,77.6,68.0,30.07,SSE,163,3.0,-999.0,73,-99.99,,,0.00,0,weatherlink.com 1.10,2013-07-15 20:03:00,
2013-07-15 22:19:00,77.3,68.0,30.07,SSE,163,0.0,-999.0,74,-99.99,,,0.00,0,weatherlink.com 1.10,2013-07-15 20:19:00,
2013-07-15 22:48:00,76.7,68.0,30.08,SSE,163,0.0,-999.0,75,-99.99,,,0.00,0,weatherlink.com 1.10,2013-07-15 20:48:00,
2013-07-15 23:04:00,76.3,68.0,30.08,SSE,163,0.0,-999.0,76,-99.99,,,0.00,0,weatherlink.com 1.10,2013-07-15 21:04:00,
2013-07-15 23:19:00,76.1,68.0,30.08,SSE,163,0.0,-999.0,77,-99.99,,,0.00,0,weatherlink.com 1.10,2013-07-15 21:19:00,
2013-07-15 23:34:00,75.9,68.0,30.08,SSE,163,0.0,-999.0,77,-99.99,,,0.00,0,weatherlink.com 1.10,2013-07-15 21:34:00,
2013-07-15 23:49:00,75.8,69.0,30.08,SSE,163,0.0,-999.0,78,-99.99,,,0.00,0,weatherlink.com 1.10,2013-07-15 21:49:00,